Weather History for KBHK - February, 2013

Change the Weather History Date:

Thursday, February 14, 2013

  Actual Average Record
Temperature  
Mean Temperature 26 °F -  
Max Temperature 28 °F 14 °F 41 °F (1999)
Min Temperature 23 °F 8 °F -16 °F (2001)
Degree Days  
Heating Degree Days 40    
Moisture  
Dew Point 18 °F    
Average Humidity 73    
Maximum Humidity 81    
Minimum Humidity 58    
Precipitation  
Precipitation 0.01 in - - ()
Sea Level Pressure  
Sea Level Pressure 30.21 in    
Wind  
Wind Speed 21 mph (NW)    
Max Wind Speed 31 mph    
Max Gust Speed 41 mph    
Visibility 4 miles    
Events Snow    
Averages and records for this station are not official NWS values.
T = Trace of Precipitation, MM = Missing Value Source: NWS Daily Summary

Daily Weather History Graph

Daily Weather History Graph

Search for Another Location

Airport or City:

Trip Planner

Search our weather history database for the weather conditions in past years. The results will help you decide how hot, cold, wet, or windy it might be!

Date:

Astronomy

Feb. 14, 2013 Rise Set
Actual Time 7:01 AM MST 5:21 PM MST
Civil Twilight 6:30 AM MST 5:52 PM MST
Nautical Twilight 5:55 AM MST 6:27 PM MST
Astronomical Twilight 5:20 AM MST 7:02 PM MST
Moon 8:45 AM MST (2/14) 10:48 PM MST (2/14)
Length of Visible Light 11h 22m
Length of Day
10h 20m
Waxing Crescent, 22% of the Moon is Illuminated
Feb 14
Waxing Crescent
Feb 17
First Quarter
Feb 25
Full
Mar 4
Last Quarter
Mar 11
New

Hourly Weather History & Observations

Time (MST) Temp. Windchill Dew Point Humidity Pressure Visibility Wind Dir Wind Speed Gust Speed Precip Events Conditions
12:51 AM 28.9 °F 15.1 °F 16.0 °F 58% 29.99 in 9.0 mi NW 23.0 mph 32.2 mph 0.00 in Snow Light Snow
1:26 AM 28.4 °F 12.5 °F 17.6 °F 64% 29.94 in 9.0 mi NW 31.1 mph 40.3 mph 0.00 in Snow Light Snow
2:01 AM 28.4 °F 13.5 °F 17.6 °F 64% 29.94 in 9.0 mi WNW 26.5 mph 39.1 mph 0.00 in Snow Light Snow
2:33 AM 28.4 °F 13.5 °F 17.6 °F 64% 29.94 in 9.0 mi WNW 26.5 mph 35.7 mph 0.00 in Snow Light Snow
2:51 AM 28.0 °F 12.8 °F 18.0 °F 66% 30.01 in 9.0 mi WNW 27.6 mph 41.4 mph 0.00 in Snow Light Snow
5:51 AM 26.1 °F 10.7 °F 18.0 °F 71% 30.13 in 9.0 mi NNW 25.3 mph 33.4 mph 0.00 in Snow Light Snow
6:12 AM 24.8 °F 9.0 °F 17.6 °F 74% 30.07 in 9.0 mi NNW 25.3 mph 34.5 mph 0.00 in Snow Light Snow
6:51 AM 25.0 °F 10.9 °F 18.0 °F 75% 30.18 in 5.0 mi NNW 19.6 mph 33.4 mph 0.00 in Snow Light Snow
7:35 AM 24.8 °F 10.0 °F 17.6 °F 74% 30.14 in 5.0 mi NNW 21.9 mph 29.9 mph 0.00 in Snow Light Snow
7:42 AM 24.8 °F 10.0 °F 17.6 °F 74% 30.15 in 4.0 mi NNW 21.9 mph 27.6 mph 0.00 in Snow Light Snow
7:51 AM 24.1 °F 9.0 °F 18.0 °F 77% 30.25 in 3.0 mi NNW 21.9 mph 27.6 mph 0.00 in Snow Light Snow
7:54 AM 24.8 °F 10.7 °F 17.6 °F 74% 30.16 in 2.5 mi NNW 19.6 mph 26.5 mph 0.00 in Snow Light Snow
8:00 AM 24.8 °F 12.9 °F 17.6 °F 74% 30.17 in 1.8 mi NNW 13.8 mph 25.3 mph 0.00 in Snow Light Snow
8:06 AM 24.8 °F 11.9 °F 17.6 °F 74% 30.17 in 1.5 mi NNW 16.1 mph 25.3 mph 0.00 in Snow Light Snow
8:12 AM 24.8 °F 10.3 °F 17.6 °F 74% 30.17 in 1.5 mi NNW 20.7 mph 27.6 mph 0.00 in Snow Light Snow
8:18 AM 24.8 °F 10.0 °F 17.6 °F 74% 30.18 in 1.2 mi NNW 21.9 mph 27.6 mph 0.00 in Snow Light Snow
8:25 AM 23.0 °F 8.0 °F 17.6 °F 80% 30.18 in 1.8 mi NNW 20.7 mph 27.6 mph 0.00 in Snow Light Snow
8:30 AM 23.0 °F 8.3 °F 17.6 °F 80% 30.19 in 2.5 mi NNW 19.6 mph - 0.00 in Snow Light Snow
8:36 AM 23.0 °F 8.7 °F 17.6 °F 80% 30.19 in 4.0 mi NNW 18.4 mph - 0.00 in Snow Light Snow
8:51 AM 24.1 °F 9.4 °F 18.0 °F 77% 30.29 in 3.0 mi North 20.7 mph - 0.00 in Snow Light Snow
9:10 AM 23.0 °F 9.2 °F 15.8 °F 74% 30.20 in 6.0 mi NNW 17.3 mph - 0.00 in Snow Light Snow
9:51 AM 24.1 °F 10.1 °F 17.1 °F 75% 30.32 in 3.0 mi NNW 18.4 mph 24.2 mph 0.00 in Snow Light Snow
9:57 AM 24.8 °F 12.9 °F 17.6 °F 74% 30.22 in 2.0 mi NNW 13.8 mph 24.2 mph 0.00 in Snow Light Snow
10:07 AM 24.8 °F 13.4 °F 17.6 °F 74% 30.22 in 1.8 mi NNW 12.7 mph - 0.00 in Snow Light Snow
10:19 AM 24.8 °F 14.0 °F 17.6 °F 74% 30.22 in 2.0 mi NNW 11.5 mph - 0.00 in Snow Light Snow
10:39 AM 26.6 °F 16.2 °F 17.6 °F 69% 30.22 in 4.0 mi NW 11.5 mph - 0.00 in Snow Light Snow
10:49 AM 26.6 °F 14.7 °F 17.6 °F 69% 30.22 in 3.0 mi NW 15.0 mph - 0.00 in Snow Light Snow
10:51 AM 26.1 °F 12.7 °F 19.0 °F 75% 30.32 in 3.0 mi NW 18.4 mph - 0.00 in Snow Light Snow
11:04 AM 26.6 °F 14.3 °F 17.6 °F 69% 30.23 in 9.0 mi NNW 16.1 mph 26.5 mph 0.00 in Snow Light Snow
11:17 AM 26.6 °F 12.7 °F 17.6 °F 69% 30.23 in 9.0 mi NW 20.7 mph 26.5 mph 0.00 in   Overcast
11:45 AM 24.8 °F 11.1 °F 17.6 °F 74% 30.23 in 4.0 mi NW 18.4 mph - 0.00 in Snow Light Snow
11:51 AM 26.1 °F 12.0 °F 18.0 °F 71% 30.33 in 3.0 mi NW 20.7 mph 26.5 mph 0.00 in Snow Light Snow
12:01 PM 26.6 °F 13.1 °F 17.6 °F 69% 30.23 in 5.0 mi NW 19.6 mph 25.3 mph 0.00 in Snow Light Snow
12:34 PM 28.4 °F 16.6 °F 17.6 °F 64% 30.23 in 10.0 mi NNW 16.1 mph 25.3 mph 0.00 in   Mostly Cloudy
12:51 PM 27.0 °F 13.9 °F 16.0 °F 63% 30.33 in 10.0 mi NW 18.4 mph 26.5 mph 0.00 in   Overcast
1:10 PM 26.6 °F 15.2 °F 17.6 °F 69% 30.23 in 9.0 mi WNW 13.8 mph - 0.00 in Snow Light Snow
1:26 PM 26.6 °F 13.8 °F 17.6 °F 69% 30.23 in 6.0 mi NNW 17.3 mph 25.3 mph 0.00 in Snow Light Snow
1:32 PM 26.6 °F 13.8 °F 17.6 °F 69% 30.23 in 8.0 mi NW 17.3 mph 25.3 mph 0.00 in Snow Light Snow
1:51 PM 26.1 °F 14.5 °F 19.0 °F 75% 30.33 in 2.0 mi NW 13.8 mph 23.0 mph 0.00 in Snow Light Snow
1:54 PM 26.6 °F 16.2 °F 19.4 °F 74% 30.23 in 1.5 mi NW 11.5 mph - 0.00 in Snow Light Snow
2:14 PM 26.6 °F 13.8 °F 19.4 °F 74% 30.24 in 2.0 mi NW 17.3 mph 23.0 mph 0.00 in Snow Light Snow
2:19 PM 24.8 °F 11.5 °F 19.4 °F 80% 30.24 in 1.2 mi NW 17.3 mph - 0.00 in Snow Light Snow
2:30 PM 26.6 °F 12.4 °F 19.4 °F 74% 30.24 in 3.0 mi NW 21.9 mph 25.3 mph 0.01 in Snow Light Snow
2:33 PM 26.6 °F 13.8 °F 19.4 °F 74% 30.24 in 2.5 mi NW 17.3 mph 25.3 mph 0.01 in Snow Light Snow
2:38 PM 24.8 °F 12.9 °F 19.4 °F 80% 30.24 in 1.2 mi NW 13.8 mph 25.3 mph 0.01 in Snow Light Snow
2:44 PM 24.8 °F 13.4 °F 19.4 °F 80% 30.24 in 1.8 mi NW 12.7 mph - 0.01 in Snow Light Snow
2:49 PM 24.8 °F 13.4 °F 19.4 °F 80% 30.24 in 2.5 mi NNW 12.7 mph - 0.01 in Snow Light Snow
2:51 PM 25.0 °F 14.2 °F 19.9 °F 81% 30.34 in 3.0 mi NW 11.5 mph - 0.01 in Snow Light Snow
2:56 PM 24.8 °F 12.4 °F 19.4 °F 80% 30.24 in 2.5 mi NW 15.0 mph - 0.00 in Snow Light Snow
3:05 PM 24.8 °F - 19.4 °F 80% 30.24 in - North - - 0.00 in   Unknown
3:51 PM - - - N/A% 30.26 in - North - - 0.00 in   Unknown
4:51 PM - - - N/A% 30.26 in - North - - N/A   Unknown
5:51 PM - - - N/A% 30.26 in - North - - N/A   Unknown
6:51 PM - - - N/A% 30.26 in - North - - N/A   Unknown
7:51 PM - - - N/A% 30.26 in - North - - N/A   Unknown
8:51 PM - - - N/A% 30.25 in - North - - N/A   Unknown
9:51 PM - - - N/A% 30.25 in - North - - N/A   Unknown
10:51 PM - - - N/A% 30.26 in - North - - N/A   Unknown
11:51 PM - - - N/A% 30.27 in - North - - N/A   Unknown